Find Starlink 3947

NORAD ID: 52607 Int'l Des: 2022-052 Owner: SPXS Country: US Constellation: starlink operational
LEOCIRCULAR

Live Position

Loading 3D Globe...

About Starlink 3947

Description loading...

Upcoming Passes

Passes for default location (London). Set your location on the main map for personalized predictions.

Altitude History

Loading altitude history...

Two-Line Element Set

1 52607U 22052K 26124.12684391 .00001336 00000-0 10199-3 0 9996
2 52607 53.2184 35.2637 0001413 91.6336 268.4818 15.08840132219144
Epoch: May 4, 2026 • Age: 8 hours

Current Status

Altitude 542.4 km
Velocity 7.60 km/s
Sub-Earth Point 39.24°N, 40.44°E
Launch Date May 14, 2022
Age 3.9 years
Type internet

Technical Details

Classification Payload
Mass 297.00 kg
Dry Mass 275.00 kg
Total Mass 297.00 kg
Length 0.20 m
Diameter 2.80 m
Span 9.00 m
Shape Box + pan
Manufacturer SPXS
Bus Type Starlink
Phase Status In Orbit
Owner/State SPXS/US

Most Searched